Regional Weather Roundup
Issued by NWS

Home | Current Version | Previous Version | Graphics & Text | Print | Product List | Glossary On
Versions: 1 2 3 4 5 6 7 8 9 10 11 12 13 14 15 16 17 18 19 20 21 22 23 24 25 26 27 28 29 30 31 32 33 34 35 36 37 38 39 40 41 42 43 44 45 46 47 48 49 50
000
ASUS45 KPSR 290610
RWRAZ

ARIZONA HOURLY REGIONAL WEATHER ROUNDUP
NATIONAL WEATHER SERVICE PHOENIX AZ
1100 PM MST TUE MAR 28 2017

NOTE: FAIR INDICATES FEW OR NO CLOUDS BELOW 12,000 FEET WITH NO
SIGNIFICANT WEATHER AND/OR OBSTRUCTIONS TO VISIBILITY.

AZZ001>003-036-290700-
NORTHWEST ARIZONA

CITY           SKY/WX    TMP DP  RH WIND       PRES   REMARKS
BULLHEAD CITY  CLEAR     70  27  19 N16       30.00S
KINGMAN        CLEAR     50   9  19 NE5       30.08R
6HR MIN TEMP:  42; 6HR MAX TEMP:  65;

$$

AZZ004>008-015-016-018-290700-
NORTH CENTRAL ARIZONA

CITY           SKY/WX    TMP DP  RH WIND       PRES   REMARKS
GRAND CANYON   CLEAR     29  23  78 CALM      30.09S
6HR MIN TEMP:  29; 6HR MAX TEMP:  53;

WILLIAMS       CLEAR     34  21  60 S3        30.09S
PRESCOTT       CLEAR     45  23  42 VRB3      30.05S
6HR MIN TEMP:  44; 6HR MAX TEMP:  61;

FLAGSTAFF      CLEAR     38  21  50 NW5       30.06S WCI  34
6HR MIN TEMP:  38; 6HR MAX TEMP:  51; 6HR PCP: TRACE;

PAYSON         CLEAR     45  32  61 CALM      30.02S
PAGE           CLEAR     52  24  33 NW8       30.04R
6HR MIN TEMP:  51; 6HR MAX TEMP:  64;

$$

AZZ009>014-017-290700-
NORTHEAST ARIZONA

CITY           SKY/WX    TMP DP  RH WIND       PRES   REMARKS
WINSLOW        CLEAR     43  28  55 W12       29.99R
6HR MIN TEMP:  40; 6HR MAX TEMP:  60;

SAINT JOHNS    CLOUDY    43  38  82 W7        29.95S
6HR MIN TEMP:  42; 6HR MAX TEMP:  46; 6HR PCP:  0.02;

WINDOW ROCK    CLEAR     42  29  59 N18G25    29.91F
6HR MIN TEMP:  41; 6HR MAX TEMP:  46;

SHOW LOW       MOCLDY    37  30  75 W6        30.01S WCI  33
$$

AZZ023-290700-
GREATER PHOENIX AREA

CITY           SKY/WX    TMP DP  RH WIND       PRES   REMARKS
PHOENIX        PTCLDY    70  26  19 W15       29.86S
6HR MIN TEMP:  69; 6HR MAX TEMP:  79;

BUCKEYE        CLEAR     64  25  22 NW12      29.89F
LUKE AFB       CLEAR     68  29  23 NW15      29.86R
6HR MIN TEMP:  68; 6HR MAX TEMP:  79;

DEER VALLEY    CLEAR     67  26  21 NW13      29.86S
6HR MIN TEMP:  64; 6HR MAX TEMP:  77;

SCOTTSDALE     CLEAR     66  28  24 CALM      29.88S
6HR MIN TEMP:  66; 6HR MAX TEMP:  77;

MESA-GATEWAY   CLEAR     61  30  31 SW5       29.89S
$$

AZZ027-028-290700-
SOUTHWEST MARICOPA COUNTY AND PINAL COUNTY

CITY           SKY/WX    TMP DP  RH WIND       PRES   REMARKS
CASA GRANDE    NOT AVBL
GILA BEND      FAIR     N/A N/A N/A SW9         N/A
$$

AZZ503-504-507>509-290700-
SOUTHEAST ARIZONA

CITY           SKY/WX    TMP DP  RH WIND       PRES   REMARKS
TUCSON         CLEAR     61  32  33 CALM      29.97S
6HR MIN TEMP:  59; 6HR MAX TEMP:  71;

DAVIS-MONTHAN  PTCLDY    56  32  40 S7        29.96S
6HR MIN TEMP:  56; 6HR MAX TEMP:  68;

NOGALES        CLEAR     49  26  41 VRB5      30.00S
6HR MIN TEMP:  49; 6HR MAX TEMP:  66;

SIERRA VISTA   PTCLDY    50  27  40 SW12      30.01F
6HR MIN TEMP:  47; 6HR MAX TEMP:  61;

DOUGLAS        CLEAR     45  27  49 NW6       29.98F
6HR MIN TEMP:  44; 6HR MAX TEMP:  63;

SAFFORD        CLEAR     53  36  52 NW8       29.90F
6HR MIN TEMP:  50; 6HR MAX TEMP:  64; 6HR PCP: TRACE;

$$

AZZ020-021-025-026-031-290700-
SOUTHWEST ARIZONA

CITY           SKY/WX    TMP DP  RH WIND       PRES   REMARKS
YUMA           CLEAR     68  22  17 NW8       29.95R
6HR MIN TEMP:  65; 6HR MAX TEMP:  81;

$$

CAZ031-033-041-043-047-048-061-290700-
SOUTHERN CALIFORNIA

CITY           SKY/WX    TMP DP  RH WIND       PRES   REMARKS
DOWNTOWN L.A.  CLEAR     65  48  54 CALM      29.99R
6HR MIN TEMP:  64; 6HR MAX TEMP:  75;

L.A. AIRPORT   CLEAR     62  46  55 E3        30.00R
6HR MIN TEMP:  61; 6HR MAX TEMP:  68;

SAN DIEGO      PTCLDY    63  50  62 CALM      30.03S
6HR MIN TEMP:  63; 6HR MAX TEMP:  69;

BURBANK        CLEAR     66  34  30 VRB5      30.01R
6HR MIN TEMP:  64; 6HR MAX TEMP:  75;

ONTARIO        CLEAR     62  36  37 CALM      30.01R
6HR MIN TEMP:  60; 6HR MAX TEMP:  77;

RIVERSIDE      CLEAR     60  36  40 CALM      30.01R
6HR MIN TEMP:  58; 6HR MAX TEMP:  79;

PALM SPRINGS   CLEAR     73  16  11 W7        30.02R
6HR MIN TEMP:  71; 6HR MAX TEMP:  85;

EL CENTRO NAS  CLEAR     59  21  23 NW10      29.98R
6HR MIN TEMP:  59; 6HR MAX TEMP:  82;

IMPERIAL       CLEAR     61  31  32 NW9       29.96R
6HR MIN TEMP:  59; 6HR MAX TEMP:  81;

BLYTHE         CLEAR     68  18  14 NW8       29.97R
6HR MIN TEMP:  67; 6HR MAX TEMP:  81;

NEEDLES        CLEAR     69  24  18 N13       30.00R
6HR MIN TEMP:  67; 6HR MAX TEMP:  80;

$$

NVZ020-UTZ003-290700-
SOUTHERN NEVADA-UTAH

CITY           SKY/WX    TMP DP  RH WIND       PRES   REMARKS
LAS VEGAS      PTCLDY    62  24  23 NE7       30.09R
6HR MIN TEMP:  62; 6HR MAX TEMP:  73;

SALT LAKE CITY CLEAR     43  33  68 CALM      30.21S
6HR MIN TEMP:  42; 6HR MAX TEMP:  54;

$$

NMZ009-TXZ055-290700-
NEW MEXICO-WEST TEXAS

CITY           SKY/WX    TMP DP  RH WIND       PRES   REMARKS
ALBUQUERQUE    CLOUDY    45  38  76 N7        29.82R
6HR MIN TEMP:  44; 6HR MAX TEMP:  50; 6HR PCP: TRACE;

EL PASO        PTCLDY    56  29  35 W13G23    29.86R
6HR MIN TEMP:  54; 6HR MAX TEMP:  62; 6HR PCP: TRACE;

$$


........................KEY........................
SKY/WX - SKY CONDITION/WEATHER
TMP    - TEMPERATURE IN FAHRENHEIT
DP     - DEW POINT IN FAHRENHEIT
RH     - RELATIVE HUMIDITY IN PERCENT
WIND   - DIRECTION AND SPEED IN MILES PER HOUR (MPH)
VRB    - VARIABLE WIND DIRECTION
PRES   - MEAN SEA LEVEL PRESSURE IN INCHES OF MERCURY
         F - FALLING PRESSURE   R - RISING PRESSURE
         S - STEADY PRESSURE
VSB    - VISIBILITY IN MILES
HX     - HEAT INDEX IN FAHRENHEIT
WCI    - WIND CHILL INDEX IN FAHRENHEIT
TC     - TEMPERATURE IN CELSIUS WHICH IS ALSO KNOWN AS
         TEMPERATURE IN CENTIGRADE
AFB    - AIR FORCE BASE
         LUKE AFB IS LUKE AIR FORCE BASE
         DAVIS-MONTHAN IS DAVIS-MONTHAN AIR FORCE BASE
NAS    - NAVAL AIR STATION
         EL CENTRO NAS IS EL CENTRO NAVAL AIR STATION
N/A    - NOT AVAILABLE




USA.gov is the U.S. government's official web portal to all federal, state and local government web resources and services.